Location: Newark
(7.0858°N, 171.3717°E)
Time: 08:24:03
(UTC+00:00)

S-56A Canister/Altair - Pass Details

Date: 29 November 2020
Orbit: 633 x 2499 km, 38.9° (Epoch: 27 January)

Event Time Altitude Azimuth Distance (km) Brightness Sun altitude
Rises 03:04:31 0° 210° (SSW) 5,938 12.8 41.1°
Reaches altitude 10° 03:08:45 10° 202° (SSW) 5,059 12.6 40.3°
Maximum altitude 03:22:12 39° 139° (SE) 3,310 11.0 37.5°
Drops below altitude 10° 03:34:32 10° 76° (ENE) 4,701 11.1 35.0°
Sets 03:38:13 0° 68° (ENE) 5,495 11.4 34.2°
